sat.trackr.live / text

‹ back to catalog

DIRECTV 15

NORAD 40663 · 2015-026A

PAYLOAD ACTIVE UNKNOWN

§ Identity

Operator
Country
US
Launch date
2015-05-27
Launch site
FRGUI
Launch vehicle
Mass (kg)
RCS (m²)
42.71

Purposes: comms

External: N2YO · Heavens-Above · Gunter

§ Orbital elements

Epoch: 2026-09-19T04:52:46.772832Z

Period
1,436.08 min
Inclination
0.0191°
Eccentricity
0.0000829
Mean motion
1.00272874 rev/d
Perigee alt
35,782.8 km
Apogee alt
35,789.8 km
Semi-major
42,164.4 km
B*
0.0000e+0
RAAN
107.0242°
Arg perigee
34.8612°
Mean anomaly
186.5714°
Rev number
4,140

§ Raw data

DIRECTV 151 40663U 15026A   26262.20331913 -.00000107  00000+0  00000+0 0  99902 40663   0.0191 107.0242 0000829  34.8612 186.5714  1.00272874 41403

JSON: /api/v1/satellites/40663 · /tle

For live sub-satellite position, see the globe view (requires WebGL).

§ Visibility from observer

Set your observer location to see the next 7 days of passes ≥ 10°. The values pass through the URL so the page stays shareable.

No JS? Fill the form by hand. The geolocation button needs JavaScript.